Wind_Speed
13 12 12 12 11 11 15 13 15 12 12 13 14 13 15 16 16 16 6 7 8 14 15 15 20 19 22 5 6 3 8 9 13 15 6 6 5 3 3 6 1 7 5 12 30
14 13 12 13 12 12 14 13 15 15 12 13 13 13 14 15 18 11 7 8 12 15 15 10 11 6 10 5 4 8 6 8 7 3 7 4 4 7 5 3 0 4 6 35 38
14 13 14 12 13 13 12 13 13 15 11 12 12 13 13 16 5 5 4 5 9 12 9 7 12 5 9 5 6 6 11 12 18 2 2 6 2 6 7 4 6 10 15 17 21
15 14 14 15 13 12 11 13 12 13 11 11 10 12 12 4 4 4 5 6 7 8 6 6 5 8 4 8 6 8 16 9 14 2 2 5 4 1 1 3 4 9 21 21 16
15 15 14 14 14 13 11 13 12 12 11 10 9 9 5 2 7 9 10 12 8 15 8 6 5 6 7 5 6 12 12 9 9 5 5 2 4 3 3 5 8 10 13 19 13
15 14 15 14 14 13 11 12 12 11 10 9 8 7 1 5 5 11 12 10 11 17 13 6 5 5 5 5 13 4 11 19 8 11 6 5 3 2 3 6 6 11 9 11 11
19 13 15 15 15 12 12 10 8 10 10 8 7 5 4 11 8 13 14 5 27 12 7 11 9 6 2 3 4 8 14 7 8 6 3 6 2 4 4 3 6 6 5 7 6
20 13 15 15 15 15 13 9 7 9 8 7 4 3 5 9 11 14 14 6 15 12 11 8 11 5 5 3 3 7 3 9 3 7 2 10 5 2 5 6 4 6 4 6 10
21 14 14 14 16 16 11 8 5 7 7 6 3 2 7 10 5 10 10 7 10 8 4 2 6 4 4 4 4 3 3 3 3 10 3 4 3 5 7 7 6 2 2 3 3
21 16 13 14 14 14 8 8 1 3 2 4 2 2 5 5 8 11 12 9 3 8 8 4 4 1 2 2 6 5 5 6 4 8 10 6 8 11 10 5 6 6 5 4 3
24 16 13 12 12 8 9 3 4 1 3 4 2 3 2 10 3 8 11 10 2 1 5 3 3 1 6 2 2 7 9 5 6 11 10 8 4 11 13 9 6 5 5 5 5
25 17 12 10 10 8 9 3 4 3 4 6 4 2 2 2 3 6 14 4 4 2 4 5 4 4 3 2 4 7 8 3 6 12 4 4 8 7 11 10 5 6 7 8 4
25 18 10 9 7 9 9 6 6 4 0 3 2 2 2 0 1 3 5 4 3 5 2 5 2 6 2 3 4 2 7 5 6 8 3 5 5 8 6 10 7 8 6 7 8
32 20 12 8 5 8 5 10 7 4 4 3 2 2 2 3 2 1 3 1 4 1 5 4 5 1 7 0 3 4 2 5 16 6 2 5 4 5 10 9 15 11 8 8 8
33 21 14 18 4 5 7 12 9 3 3 3 2 2 2 3 2 2 3 3 1 2 1 1 3 4 4 1 3 4 4 3 8 7 2 6 2 5 7 11 21 8 10 10 9
33 23 16 15 9 7 14 13 7 4 6 3 3 3 3 3 2 1 1 3 1 2 2 3 1 1 1 3 5 5 8 11 6 2 1 7 5 4 3 9 9 7 8 9 9
35 25 21 14 6 19 16 4 5 2 1 4 4 3 2 3 2 3 3 1 1 3 2 4 2 5 2 5 7 2 2 3 2 2 1 4 5 7 7 5 5 9 9 8 5
36 24 21 19 13 22 11 4 3 4 5 2 4 3 3 4 1 3 4 1 3 1 2 3 2 2 2 2 3 3 1 3 3 2 3 3 4 4 3 4 2 2 3 5 4
17 20 15 16 24 22 2 4 6 7 6 6 3 3 2 3 2 1 2 3 4 6 2 4 1 3 1 0 1 4 3 0 5 3 3 2 4 6 3 6 7 8 8 7 6
11 11 9 22 21 10 2 4 3 4 4 3 5 5 5 5 2 4 2 4 3 7 2 2 3 2 2 2 3 1 1 4 3 3 2 2 3 3 1 2 5 6 6 6 5
15 4 15 23 16 1 3 5 3 5 5 5 6 4 4 6 5 4 4 3 2 5 6 3 2 2 2 4 2 4 3 5 3 3 3 2 4 4 5 4 7 5 4 6 6
10 4 23 26 4 3 3 6 2 4 3 4 4 4 6 6 4 4 5 4 3 3 5 4 4 3 2 1 0 0 2 3 4 2 2 3 4 5 3 4 4 5 2 3 4
7 3 12 7 5 4 2 2 3 4 5 4 4 4 2 5 4 2 2 3 2 2 2 2 2 3 6 4 2 2 3 3 4 2 1 3 4 5 7 6 3 1 3 2 5
4 4 2 2 1 5 5 4 6 5 4 3 3 2 3 4 4 4 2 2 3 2 5 5 3 4 5 4 4 3 4 4 4 3 3 4 2 2 4 5 0 3 3 5 6
2 3 4 7 9 4 6 3 11 5 1 5 1 3 5 4 4 3 2 2 4 4 3 3 3 3 3 3 2 1 1 5 4 4 5 4 4 4 5 1 0 2 2 2 5
5 4 2 2 12 8 5 4 11 3 4 4 5 3 3 5 5 6 6 3 3 3 3 3 0 1 4 5 6 2 2 1 3 3 5 3 5 5 6 4 5 5 1 3 4
3 1 4 6 8 12 6 4 7 7 3 3 6 5 4 4 5 5 2 4 5 6 3 3 4 2 2 3 4 5 4 4 3 3 4 5 7 4 2 4 4 2 1 1 5
Wind_Direction
296 301 312 311 312 302 315 308 309 291 300 305 307 309 320 319 314 316 255 255 282 282 288 279 280 272 225 216 215 187 221 215 219 191 201 184 183 161 106 142 134 151 145 137 143
290 296 302 307 310 308 308 309 296 312 292 302 306 318 320 320 317 274 265 284 300 289 285 257 268 232 210 208 210 210 233 213 275 232 152 179 198 155 131 140 104 102 94 143 149
282 290 295 303 307 310 304 308 305 298 293 294 302 319 323 319 330 246 241 291 333 305 256 242 247 231 210 220 194 219 229 196 253 280 78 144 90 325 137 197 211 166 140 151 159
275 282 290 294 299 301 300 308 299 286 298 304 304 323 324 328 297 261 276 266 339 345 268 245 236 214 214 214 205 239 217 184 234 352 2 102 314 72 280 225 150 158 151 157 171
266 274 279 285 293 295 296 304 296 285 303 311 312 331 339 350 256 291 297 263 263 337 306 236 237 215 208 209 243 220 194 247 148 105 36 78 71 224 12 17 95 125 147 159 166
261 271 272 277 284 288 294 298 296 289 300 300 315 325 57 280 266 308 319 268 275 287 262 231 257 218 236 238 191 234 200 243 147 80 57 39 327 77 321 327 122 146 149 151 157
258 261 269 276 284 286 292 293 286 292 296 290 309 323 274 255 281 314 328 295 317 243 206 239 217 254 231 225 179 249 216 311 217 120 59 342 30 107 301 18 126 122 168 157 170
257 256 266 277 282 284 291 284 282 286 286 286 292 272 254 276 294 309 329 310 342 173 202 239 207 308 255 302 132 140 141 175 212 154 60 23 172 166 356 35 118 129 165 186 164
252 249 258 271 279 287 287 277 277 286 271 272 245 143 270 308 312 336 343 331 51 86 230 294 187 243 228 163 89 157 110 173 301 186 78 122 271 295 349 22 5 358 125 114 143
254 245 250 267 276 286 276 275 194 292 247 216 225 318 271 300 309 330 348 339 123 71 359 332 188 176 176 150 176 142 162 129 251 119 122 168 290 331 307 1 340 329 337 308 160
247 238 243 262 272 274 268 186 68 6 228 212 225 243 311 315 321 355 356 338 114 211 202 260 88 356 39 34 238 142 124 128 125 136 152 142 292 303 312 314 314 307 278 264 236
252 225 234 256 271 259 249 191 153 147 289 231 253 244 280 285 10 343 358 29 30 350 339 25 33 29 322 13 113 145 137 148 138 132 97 120 296 257 293 273 265 243 237 240 222
296 219 218 244 243 232 232 172 135 132 162 284 210 237 224 225 107 310 14 358 8 19 359 108 314 315 192 9 138 97 143 158 121 145 51 119 246 219 249 260 253 273 229 223 219
316 221 194 205 206 200 229 169 139 135 60 243 241 228 143 162 37 347 13 100 9 1 329 65 335 249 122 331 337 93 68 73 137 114 158 139 277 223 194 223 257 234 243 237 212
319 223 196 193 173 193 178 156 136 95 17 199 179 143 184 105 188 351 355 11 112 287 334 46 347 122 123 259 282 92 27 117 125 92 138 138 351 290 169 207 243 234 219 227 224
315 222 196 199 229 187 162 147 114 36 264 175 127 204 212 136 52 24 35 52 224 311 291 115 235 6 19 118 102 25 103 83 85 92 115 166 171 274 197 225 245 237 233 222 217
313 214 196 197 204 169 171 126 63 186 330 215 205 175 235 114 155 218 177 63 108 90 9 71 342 329 338 109 68 330 228 100 100 122 211 167 167 258 268 272 244 251 230 220 209
312 196 203 204 196 169 186 70 133 214 198 200 145 131 145 137 17 212 135 169 223 222 93 110 276 270 6 11 152 227 155 138 125 148 180 118 222 248 316 336 14 53 96 74 70
272 187 205 213 173 176 111 95 201 210 184 156 92 147 189 117 170 198 195 206 200 197 128 132 56 307 195 140 184 262 48 45 106 10 66 226 307 329 13 30 46 71 75 73 68
213 197 193 178 178 182 70 169 208 213 156 119 162 178 154 155 153 186 208 223 172 188 232 190 92 338 271 169 204 128 164 42 17 117 215 313 303 244 202 107 74 60 81 64 54
195 178 175 177 167 209 195 174 246 241 166 158 195 164 171 155 152 187 225 278 196 166 170 142 87 299 353 13 81 36 353 46 102 92 145 115 264 225 268 167 130 114 92 82 59
159 178 171 166 154 202 196 153 235 196 176 202 148 200 153 149 152 193 194 243 212 169 147 179 118 104 170 235 317 39 192 131 114 246 58 139 282 339 258 97 86 100 70 96 92
145 142 169 196 173 199 113 70 229 168 171 177 187 206 150 144 103 76 145 331 248 66 137 182 24 73 356 9 350 195 187 103 99 87 235 106 280 13 51 70 57 106 19 55 31
139 136 137 211 258 166 127 192 197 183 153 170 184 151 121 105 65 162 124 6 4 79 70 93 100 150 180 187 148 175 183 135 112 97 176 216 278 49 85 92 215 264 358 25 45
125 163 180 176 196 178 137 168 179 152 182 189 98 174 151 122 102 107 57 24 19 359 67 91 107 79 34 92 116 128 194 175 159 160 143 249 220 195 187 339 90 177 80 55 12
138 160 109 106 156 161 145 216 178 146 132 195 156 173 158 132 148 178 137 155 195 20 63 35 109 76 24 8 28 353 314 149 201 179 253 198 265 214 218 174 146 153 67 341 354
184 254 107 131 147 168 182 194 182 129 56 133 150 106 85 130 115 110 118 131 154 144 122 91 135 88 243 350 336 317 245 205 189 201 183 196 235 164 205 214 196 186 105 340 316
Height
822 820 818 815 813 813 811 808 807 804 804 802 801 797 797 796 792 789 787 784 783 781 780 778 778 777 778 780 778 776 775 774 768 765 759 750 752 747 746 753 754 756 757 756 770
820 819 815 814 811 810 808 806 805 802 801 801 799 797 795 794 789 785 782 782 781 778 777 776 776 774 776 777 776 775 772 774 762 754 750 750 749 749 751 756 757 755 755 758 764
815 814 814 811 810 807 805 802 802 800 798 798 797 795 794 791 788 780 779 779 777 774 773 773 773 773 775 774 773 770 765 766 762 756 748 750 751 751 751 757 751 752 757 762 766
812 810 811 809 807 804 801 801 798 798 796 795 795 793 792 790 796 777 777 777 775 772 772 771 770 769 772 773 768 771 763 762 759 759 754 752 756 752 750 748 743 746 747 757 766
806 806 805 804 804 801 797 797 796 795 794 792 793 792 790 790 784 776 775 774 772 771 772 771 769 768 770 769 769 766 760 764 755 755 755 749 757 758 753 749 746 749 753 756 763
801 802 801 800 800 798 794 793 793 793 792 791 791 790 790 790 777 775 772 771 770 770 770 769 766 765 768 766 765 760 755 761 748 756 757 756 758 756 756 753 751 752 754 758 761
797 796 797 798 798 794 792 789 789 791 790 789 789 789 788 784 774 772 770 767 762 761 765 767 767 769 765 760 757 757 756 765 753 757 762 760 761 766 764 755 757 757 756 758 763
793 792 794 795 794 793 790 786 785 788 788 788 787 787 784 775 773 770 767 766 761 759 765 765 765 764 762 756 756 760 767 773 759 759 760 766 766 765 766 762 759 762 762 763 764
788 788 788 790 792 791 788 785 782 784 786 786 786 785 783 774 771 768 766 765 765 765 765 765 765 768 757 760 760 758 763 770 762 760 766 773 773 769 767 766 764 764 764 762 765
783 785 784 786 788 788 784 784 780 782 785 784 785 788 779 775 771 768 766 765 766 767 767 767 762 772 758 759 765 765 766 771 775 767 775 785 778 769 772 767 768 767 766 766 766
778 781 780 782 784 783 784 782 782 785 784 779 778 777 775 773 771 769 767 765 765 767 770 766 761 760 755 754 751 752 765 767 768 768 777 783 784 776 769 767 771 770 770 770 767
778 775 777 779 781 782 783 778 774 779 781 776 774 775 775 774 772 769 770 769 769 773 766 768 764 763 758 754 754 757 761 765 765 767 772 779 780 779 770 771 768 770 772 770 769
775 771 774 778 779 780 780 774 774 775 783 775 773 774 775 775 774 773 772 771 774 773 767 772 772 768 763 756 757 762 764 764 762 772 774 778 782 778 775 771 771 766 766 767 768
772 770 769 776 780 776 776 772 772 775 803 777 775 773 775 773 776 772 773 776 775 776 771 770 771 766 767 765 762 764 761 761 766 772 778 779 779 767 765 769 761 765 767 765 764
771 769 769 771 770 772 771 771 771 776 823 772 774 772 772 773 775 775 774 773 778 775 774 772 772 765 766 773 765 765 762 767 764 770 776 782 788 763 760 767 756 763 765 764 761
768 767 768 771 769 769 770 769 770 792 811 777 772 773 770 770 773 775 774 775 775 772 767 766 764 764 763 763 763 765 767 766 773 779 783 778 786 771 767 758 756 756 758 758 759
763 762 765 767 763 765 770 767 790 789 777 776 772 771 766 771 777 776 774 779 786 780 770 769 768 765 763 764 768 770 770 778 782 783 779 776 784 770 759 753 751 752 752 754 756
758 757 761 762 761 763 767 772 789 776 777 759 764 768 765 769 770 771 775 780 775 772 770 777 786 772 765 764 769 770 769 776 777 782 788 779 779 769 755 755 753 750 750 752 756
754 756 759 758 760 762 768 783 776 776 764 757 761 767 765 763 764 769 774 772 769 773 768 777 772 768 769 764 767 770 783 766 779 785 793 783 768 757 756 758 757 758 759 761 760
752 755 754 756 761 763 770 760 765 753 753 754 761 762 769 769 765 768 772 762 759 767 766 769 774 769 766 765 767 763 763 774 790 788 781 789 782 774 762 761 760 763 763 761 761
749 750 750 754 761 765 771 764 757 748 745 750 756 760 759 764 765 767 769 761 757 761 766 765 770 777 771 776 773 771 769 777 782 800 794 792 784 770 766 762 765 767 766 764 763
737 747 746 752 760 761 762 748 746 744 743 743 748 749 753 760 757 758 766 768 754 754 761 764 779 786 776 772 772 773 772 780 800 792 819 814 786 774 766 764 765 766 765 764 765
733 741 746 749 753 756 744 748 749 744 744 745 746 744 742 751 760 756 760 758 755 756 759 760 784 812 798 785 778 775 774 779 790 801 815 809 785 768 768 766 766 766 766 767 767
727 736 743 747 744 743 746 749 739 739 742 742 742 741 743 749 753 762 759 758 757 757 757 761 780 781 799 778 781 784 775 777 789 813 792 794 776 770 770 771 768 766 765 766 768
719 725 726 733 740 741 740 739 732 741 739 743 742 742 744 751 757 765 763 761 760 761 762 766 788 803 774 772 776 776 774 779 795 785 798 781 780 772 774 770 770 771 771 771 772
715 722 725 729 728 735 739 744 735 740 741 744 744 744 744 749 750 762 764 765 764 764 765 774 795 784 778 778 779 775 774 776 780 779 780 779 779 772 772 772 773 772 771 771 772
712 711 713 724 729 735 735 743 737 740 745 743 744 750 751 755 756 759 760 761 761 766 772 777 791 801 800 794 784 787 777 776 775 774 772 780 770 769 769 769 769 769 770 772 774